User: anonymous   Login
Location: Unspecified
(0.0000°N, 0.0000°E)
Time: 17:36:33
(UTC+00:00)
Language:

deb Snapshot - Orbit

View from above orbital plane
View from above orbital plane
View from above satellite
View from above satellite

Ground track
Ground track

The orbit is defined by the following mean orbital elements,

1 18691U          26101.47301337 +.00000000 +00000-0 +11351-2 0 00009
2 18691  90.2293 355.3865 0024396 285.9823 198.8761 12.96735822    03
Epoch (UTC): 11 April 2026 11:21:08
Eccentricity: 0.0024396
inclination: 90.2293°
perigee height: 1256 km
apogee height: 1294 km
right ascension of ascending node: 355.3865°
argument of perigee: 285.9823°
revolutions per day: 12.96735822
mean anomaly at epoch: 198.8761°

The dashed part of the orbit path shows where the satellite is in the earth's shadow,  

DLR